owner,sensor,date,latitude,longitude,mass_concentration_of_chlorophyll_in_sea_water,qcFlag 
SCCF RECON,ioos:station:SCCF:18:1,2013-02-01T00:00:00Z,26.6955,-81.8138,10.33,1111122 
SCCF RECON,ioos:station:SCCF:18:1,2013-02-01T01:00:00Z,26.6955,-81.8138,11.97,1111122 
SCCF RECON,ioos:station:SCCF:18:1,2013-02-01T02:00:00Z,26.6955,-81.8138,10.53,1111122 
SCCF RECON,ioos:station:SCCF:18:1,2013-02-01T03:00:00Z,26.6955,-81.8138,9.74,1111122 
SCCF RECON,ioos:station:SCCF:18:1,2013-02-01T04:00:00Z,26.6955,-81.8138,8.85,1111122 
SCCF RECON,ioos:station:SCCF:18:1,2013-02-01T05:00:00Z,26.6955,-81.8138,9.07,1111122 
SCCF RECON,ioos:station:SCCF:18:1,2013-02-01T06:00:00Z,26.6955,-81.8138,8.98,1111122 
SCCF RECON,ioos:station:SCCF:18:1,2013-02-01T07:00:00Z,26.6955,-81.8138,8.2,1111122 
SCCF RECON,ioos:station:SCCF:18:1,2013-02-01T08:00:00Z,26.6955,-81.8138,7.85,1111122 
SCCF RECON,ioos:station:SCCF:18:1,2013-02-01T09:00:00Z,26.6955,-81.8138,11.1,1111122 
SCCF RECON,ioos:station:SCCF:18:1,2013-02-01T10:00:00Z,26.6955,-81.8138,12.45,1111122 
SCCF RECON,ioos:station:SCCF:18:1,2013-02-01T11:00:00Z,26.6955,-81.8138,11.15,1111122 
SCCF RECON,ioos:station:SCCF:18:1,2013-02-01T12:00:00Z,26.6955,-81.8138,11.1,1111122 
SCCF RECON,ioos:station:SCCF:18:1,2013-02-01T13:00:00Z,26.6955,-81.8138,10.6,1111122 
SCCF RECON,ioos:station:SCCF:18:1,2013-02-01T14:00:00Z,26.6955,-81.8138,10.5,1111122 
SCCF RECON,ioos:station:SCCF:18:1,2013-02-01T15:00:00Z,26.6955,-81.8138,9.04,1111122 
SCCF RECON,ioos:station:SCCF:18:1,2013-02-01T16:00:00Z,26.6955,-81.8138,8.92,1111122 
SCCF RECON,ioos:station:SCCF:18:1,2013-02-01T17:00:00Z,26.6955,-81.8138,9.88,1111122 
SCCF RECON,ioos:station:SCCF:18:1,2013-02-01T18:00:00Z,26.6955,-81.8138,10.64,1111122 
SCCF RECON,ioos:station:SCCF:18:1,2013-02-01T19:00:00Z,26.6955,-81.8138,11.65,1111122 
SCCF RECON,ioos:station:SCCF:18:1,2013-02-01T20:00:00Z,26.6955,-81.8138,11.44,1111122 
SCCF RECON,ioos:station:SCCF:18:1,2013-02-01T21:00:00Z,26.6955,-81.8138,12.6,1111122 
SCCF RECON,ioos:station:SCCF:18:1,2013-02-01T22:00:00Z,26.6955,-81.8138,12.42,1111122 
SCCF RECON,ioos:station:SCCF:18:1,2013-02-01T23:00:00Z,26.6955,-81.8138,15.81,1111122 
SCCF RECON,ioos:station:SCCF:18:1,2013-02-02T00:00:00Z,26.6955,-81.8138,20.24,1111122 
SCCF RECON,ioos:station:SCCF:18:1,2013-02-02T01:00:00Z,26.6955,-81.8138,13.08,1111122 
SCCF RECON,ioos:station:SCCF:18:1,2013-02-02T02:00:00Z,26.6955,-81.8138,10.36,1111122 
SCCF RECON,ioos:station:SCCF:18:1,2013-02-02T03:00:00Z,26.6955,-81.8138,12.37,1111122 
SCCF RECON,ioos:station:SCCF:18:1,2013-02-02T04:00:00Z,26.6955,-81.8138,11.1,1111122 
SCCF RECON,ioos:station:SCCF:18:1,2013-02-02T05:00:00Z,26.6955,-81.8138,10.26,1111122 
SCCF RECON,ioos:station:SCCF:18:1,2013-02-02T06:00:00Z,26.6955,-81.8138,9.99,1111122 
SCCF RECON,ioos:station:SCCF:18:1,2013-02-02T07:00:00Z,26.6955,-81.8138,9.04,1111122 
SCCF RECON,ioos:station:SCCF:18:1,2013-02-02T08:00:00Z,26.6955,-81.8138,9.63,1111122 
SCCF RECON,ioos:station:SCCF:18:1,2013-02-02T09:00:00Z,26.6955,-81.8138,7.87,1111122 
SCCF RECON,ioos:station:SCCF:18:1,2013-02-02T10:00:00Z,26.6955,-81.8138,9.31,1111122 
SCCF RECON,ioos:station:SCCF:18:1,2013-02-02T11:00:00Z,26.6955,-81.8138,8.17,1111122 
SCCF RECON,ioos:station:SCCF:18:1,2013-02-02T12:00:00Z,26.6955,-81.8138,9.2,1111122 
SCCF RECON,ioos:station:SCCF:18:1,2013-02-02T13:00:00Z,26.6955,-81.8138,11.86,1111122 
SCCF RECON,ioos:station:SCCF:18:1,2013-02-02T14:00:00Z,26.6955,-81.8138,10.02,1111122 
SCCF RECON,ioos:station:SCCF:18:1,2013-02-02T15:00:00Z,26.6955,-81.8138,11.44,1111122 
SCCF RECON,ioos:station:SCCF:18:1,2013-02-02T16:00:00Z,26.6955,-81.8138,12.52,1111122 
SCCF RECON,ioos:station:SCCF:18:1,2013-02-02T17:00:00Z,26.6955,-81.8138,10.46,1111122 
SCCF RECON,ioos:station:SCCF:18:1,2013-02-02T18:00:00Z,26.6955,-81.8138,14.37,1111122 
SCCF RECON,ioos:station:SCCF:18:1,2013-02-02T19:00:00Z,26.6955,-81.8138,16.51,1111122 
SCCF RECON,ioos:station:SCCF:18:1,2013-02-02T20:00:00Z,26.6955,-81.8138,14.81,1111122 
SCCF RECON,ioos:station:SCCF:18:1,2013-02-02T21:00:00Z,26.6955,-81.8138,13.33,1111122 
SCCF RECON,ioos:station:SCCF:18:1,2013-02-02T22:00:00Z,26.6955,-81.8138,18.53,1111122 
SCCF RECON,ioos:station:SCCF:18:1,2013-02-02T23:00:00Z,26.6955,-81.8138,20.22,1111122 
SCCF RECON,ioos:station:SCCF:18:1,2013-02-03T00:00:00Z,26.6955,-81.8138,16.5,1111122 
SCCF RECON,ioos:station:SCCF:18:1,2013-02-03T01:00:00Z,26.6955,-81.8138,17.05,1111122 
SCCF RECON,ioos:station:SCCF:18:1,2013-02-03T02:00:00Z,26.6955,-81.8138,16.0,1111122 
SCCF RECON,ioos:station:SCCF:18:1,2013-02-03T03:00:00Z,26.6955,-81.8138,11.29,1111122 
SCCF RECON,ioos:station:SCCF:18:1,2013-02-03T04:00:00Z,26.6955,-81.8138,12.15,1111122 
SCCF RECON,ioos:station:SCCF:18:1,2013-02-03T05:00:00Z,26.6955,-81.8138,12.16,1111122 
SCCF RECON,ioos:station:SCCF:18:1,2013-02-03T06:00:00Z,26.6955,-81.8138,11.59,1111122 
SCCF RECON,ioos:station:SCCF:18:1,2013-02-03T07:00:00Z,26.6955,-81.8138,9.1,1111122 
SCCF RECON,ioos:station:SCCF:18:1,2013-02-03T08:00:00Z,26.6955,-81.8138,8.11,1111122 
SCCF RECON,ioos:station:SCCF:18:1,2013-02-03T09:00:00Z,26.6955,-81.8138,7.9,1111122 
SCCF RECON,ioos:station:SCCF:18:1,2013-02-03T10:00:00Z,26.6955,-81.8138,6.77,1111122 
SCCF RECON,ioos:station:SCCF:18:1,2013-02-03T11:00:00Z,26.6955,-81.8138,6.8,1111122 
SCCF RECON,ioos:station:SCCF:18:1,2013-02-03T12:00:00Z,26.6955,-81.8138,8.07,1111122 
SCCF RECON,ioos:station:SCCF:18:1,2013-02-03T13:00:00Z,26.6955,-81.8138,11.87,1111122 
SCCF RECON,ioos:station:SCCF:18:1,2013-02-03T14:00:00Z,26.6955,-81.8138,11.8,1111122 
SCCF RECON,ioos:station:SCCF:18:1,2013-02-03T15:00:00Z,26.6955,-81.8138,11.47,1111122 
SCCF RECON,ioos:station:SCCF:18:1,2013-02-03T16:00:00Z,26.6955,-81.8138,9.22,1111122 
SCCF RECON,ioos:station:SCCF:18:1,2013-02-03T17:00:00Z,26.6955,-81.8138,8.9,1111122 
SCCF RECON,ioos:station:SCCF:18:1,2013-02-03T18:00:00Z,26.6955,-81.8138,8.67,1111122 
SCCF RECON,ioos:station:SCCF:18:1,2013-02-03T19:00:00Z,26.6955,-81.8138,9.09,1111122 
SCCF RECON,ioos:station:SCCF:18:1,2013-02-03T20:00:00Z,26.6955,-81.8138,9.67,1111122 
SCCF RECON,ioos:station:SCCF:18:1,2013-02-03T21:00:00Z,26.6955,-81.8138,9.73,1111122 
SCCF RECON,ioos:station:SCCF:18:1,2013-02-03T22:00:00Z,26.6955,-81.8138,11.6,1111122 
SCCF RECON,ioos:station:SCCF:18:1,2013-02-03T23:00:00Z,26.6955,-81.8138,12.57,1111122 
SCCF RECON,ioos:station:SCCF:18:1,2013-02-04T00:00:00Z,26.6955,-81.8138,11.42,1111122 
SCCF RECON,ioos:station:SCCF:18:1,2013-02-04T01:00:00Z,26.6955,-81.8138,16.22,1111122 
SCCF RECON,ioos:station:SCCF:18:1,2013-02-04T02:00:00Z,26.6955,-81.8138,13.37,1111122 
SCCF RECON,ioos:station:SCCF:18:1,2013-02-04T03:00:00Z,26.6955,-81.8138,10.95,1111122 
SCCF RECON,ioos:station:SCCF:18:1,2013-02-04T04:00:00Z,26.6955,-81.8138,15.17,1111122 
SCCF RECON,ioos:station:SCCF:18:1,2013-02-04T05:00:00Z,26.6955,-81.8138,8.54,1111122 
SCCF RECON,ioos:station:SCCF:18:1,2013-02-04T06:00:00Z,26.6955,-81.8138,9.21,1111122 
SCCF RECON,ioos:station:SCCF:18:1,2013-02-04T07:00:00Z,26.6955,-81.8138,7.86,1111122 
SCCF RECON,ioos:station:SCCF:18:1,2013-02-04T08:00:00Z,26.6955,-81.8138,6.72,1111122 
SCCF RECON,ioos:station:SCCF:18:1,2013-02-04T09:00:00Z,26.6955,-81.8138,6.78,1111122 
SCCF RECON,ioos:station:SCCF:18:1,2013-02-04T10:00:00Z,26.6955,-81.8138,6.4,1111122 
SCCF RECON,ioos:station:SCCF:18:1,2013-02-04T11:00:00Z,26.6955,-81.8138,6.65,1111122 
SCCF RECON,ioos:station:SCCF:18:1,2013-02-04T12:00:00Z,26.6955,-81.8138,6.87,1111122 
SCCF RECON,ioos:station:SCCF:18:1,2013-02-04T13:00:00Z,26.6955,-81.8138,7.75,1111122 
SCCF RECON,ioos:station:SCCF:18:1,2013-02-04T14:00:00Z,26.6955,-81.8138,8.91,1111122 
SCCF RECON,ioos:station:SCCF:18:1,2013-02-04T15:00:00Z,26.6955,-81.8138,9.29,1111122 
SCCF RECON,ioos:station:SCCF:18:1,2013-02-04T16:00:00Z,26.6955,-81.8138,8.84,1111122 
SCCF RECON,ioos:station:SCCF:18:1,2013-02-04T17:00:00Z,26.6955,-81.8138,7.15,1111122 
SCCF RECON,ioos:station:SCCF:18:1,2013-02-04T18:00:00Z,26.6955,-81.8138,6.73,1111122 
SCCF RECON,ioos:station:SCCF:18:1,2013-02-04T19:00:00Z,26.6955,-81.8138,9.56,1111122 
SCCF RECON,ioos:station:SCCF:18:1,2013-02-04T20:00:00Z,26.6955,-81.8138,7.94,1111122 
SCCF RECON,ioos:station:SCCF:18:1,2013-02-04T21:00:00Z,26.6955,-81.8138,7.53,1111122 
SCCF RECON,ioos:station:SCCF:18:1,2013-02-04T22:00:00Z,26.6955,-81.8138,10.55,1111122 
SCCF RECON,ioos:station:SCCF:18:1,2013-02-04T23:00:00Z,26.6955,-81.8138,15.5,1111122 
SCCF RECON,ioos:station:SCCF:18:1,2013-02-05T00:00:00Z,26.6955,-81.8138,14.26,1111122 
SCCF RECON,ioos:station:SCCF:18:1,2013-02-05T01:00:00Z,26.6955,-81.8138,10.45,1111122 
SCCF RECON,ioos:station:SCCF:18:1,2013-02-05T02:00:00Z,26.6955,-81.8138,14.14,1111122 
SCCF RECON,ioos:station:SCCF:18:1,2013-02-05T03:00:00Z,26.6955,-81.8138,11.62,1111122 
SCCF RECON,ioos:station:SCCF:18:1,2013-02-05T04:00:00Z,26.6955,-81.8138,10.66,1111122 
SCCF RECON,ioos:station:SCCF:18:1,2013-02-05T05:00:00Z,26.6955,-81.8138,6.55,1111122 
SCCF RECON,ioos:station:SCCF:18:1,2013-02-05T06:00:00Z,26.6955,-81.8138,7.45,1111122 
SCCF RECON,ioos:station:SCCF:18:1,2013-02-05T07:00:00Z,26.6955,-81.8138,8.01,1111122 
SCCF RECON,ioos:station:SCCF:18:1,2013-02-05T08:00:00Z,26.6955,-81.8138,6.33,1111122 
SCCF RECON,ioos:station:SCCF:18:1,2013-02-05T09:00:00Z,26.6955,-81.8138,6.48,1111122 
SCCF RECON,ioos:station:SCCF:18:1,2013-02-05T10:00:00Z,26.6955,-81.8138,7.07,1111122 
SCCF RECON,ioos:station:SCCF:18:1,2013-02-05T11:00:00Z,26.6955,-81.8138,6.54,1111122 
SCCF RECON,ioos:station:SCCF:18:1,2013-02-05T12:00:00Z,26.6955,-81.8138,6.37,1111122 
SCCF RECON,ioos:station:SCCF:18:1,2013-02-05T13:00:00Z,26.6955,-81.8138,6.97,1111122 
SCCF RECON,ioos:station:SCCF:18:1,2013-02-05T14:00:00Z,26.6955,-81.8138,6.5,1111122 
SCCF RECON,ioos:station:SCCF:18:1,2013-02-05T15:00:00Z,26.6955,-81.8138,8.4,1111122 
SCCF RECON,ioos:station:SCCF:18:1,2013-02-05T16:00:00Z,26.6955,-81.8138,7.16,1111122 
SCCF RECON,ioos:station:SCCF:18:1,2013-02-05T17:00:00Z,26.6955,-81.8138,6.9,1111122 
SCCF RECON,ioos:station:SCCF:18:1,2013-02-05T18:00:00Z,26.6955,-81.8138,9.22,1111122 
SCCF RECON,ioos:station:SCCF:18:1,2013-02-05T19:00:00Z,26.6955,-81.8138,11.57,1111122 
SCCF RECON,ioos:station:SCCF:18:1,2013-02-05T20:00:00Z,26.6955,-81.8138,7.44,1111122 
SCCF RECON,ioos:station:SCCF:18:1,2013-02-05T21:00:00Z,26.6955,-81.8138,7.72,1111122 
SCCF RECON,ioos:station:SCCF:18:1,2013-02-05T22:00:00Z,26.6955,-81.8138,7.96,1111122 
SCCF RECON,ioos:station:SCCF:18:1,2013-02-05T23:00:00Z,26.6955,-81.8138,13.15,1111122 
SCCF RECON,ioos:station:SCCF:18:1,2013-02-06T00:00:00Z,26.6955,-81.8138,14.96,1111122 
SCCF RECON,ioos:station:SCCF:18:1,2013-02-06T01:00:00Z,26.6955,-81.8138,12.33,1111122 
SCCF RECON,ioos:station:SCCF:18:1,2013-02-06T02:00:00Z,26.6955,-81.8138,13.39,1111122 
SCCF RECON,ioos:station:SCCF:18:1,2013-02-06T03:00:00Z,26.6955,-81.8138,13.45,1111122 
SCCF RECON,ioos:station:SCCF:18:1,2013-02-06T04:00:00Z,26.6955,-81.8138,12.92,1111122 
SCCF RECON,ioos:station:SCCF:18:1,2013-02-06T05:00:00Z,26.6955,-81.8138,10.9,1111122 
SCCF RECON,ioos:station:SCCF:18:1,2013-02-06T06:00:00Z,26.6955,-81.8138,8.24,1111122 
SCCF RECON,ioos:station:SCCF:18:1,2013-02-06T07:00:00Z,26.6955,-81.8138,9.15,1111122 
SCCF RECON,ioos:station:SCCF:18:1,2013-02-06T08:00:00Z,26.6955,-81.8138,11.99,1111122 
SCCF RECON,ioos:station:SCCF:18:1,2013-02-06T09:00:00Z,26.6955,-81.8138,7.89,1111122 
SCCF RECON,ioos:station:SCCF:18:1,2013-02-06T10:00:00Z,26.6955,-81.8138,6.81,1111122 
SCCF RECON,ioos:station:SCCF:18:1,2013-02-06T11:00:00Z,26.6955,-81.8138,6.71,1111122 
SCCF RECON,ioos:station:SCCF:18:1,2013-02-06T12:00:00Z,26.6955,-81.8138,6.76,1111122 
SCCF RECON,ioos:station:SCCF:18:1,2013-02-06T13:00:00Z,26.6955,-81.8138,7.67,1111122 
SCCF RECON,ioos:station:SCCF:18:1,2013-02-06T14:00:00Z,26.6955,-81.8138,7.46,1111122 
SCCF RECON,ioos:station:SCCF:18:1,2013-02-06T15:00:00Z,26.6955,-81.8138,7.77,1111122 
SCCF RECON,ioos:station:SCCF:18:1,2013-02-06T16:00:00Z,26.6955,-81.8138,9.39,1111122 
SCCF RECON,ioos:station:SCCF:18:1,2013-02-06T17:00:00Z,26.6955,-81.8138,8.63,1111122 
SCCF RECON,ioos:station:SCCF:18:1,2013-02-06T18:00:00Z,26.6955,-81.8138,9.18,1111122 
SCCF RECON,ioos:station:SCCF:18:1,2013-02-06T19:00:00Z,26.6955,-81.8138,9.17,1111122 
SCCF RECON,ioos:station:SCCF:18:1,2013-02-06T20:00:00Z,26.6955,-81.8138,8.72,1111122 
SCCF RECON,ioos:station:SCCF:18:1,2013-02-06T21:00:00Z,26.6955,-81.8138,8.04,1111122 
SCCF RECON,ioos:station:SCCF:18:1,2013-02-06T22:00:00Z,26.6955,-81.8138,7.89,1111122 
SCCF RECON,ioos:station:SCCF:18:1,2013-02-06T23:00:00Z,26.6955,-81.8138,9.91,1111122 
SCCF RECON,ioos:station:SCCF:18:1,2013-02-07T00:00:00Z,26.6955,-81.8138,10.12,1111122 
SCCF RECON,ioos:station:SCCF:18:1,2013-02-07T01:00:00Z,26.6955,-81.8138,9.82,1111122 
SCCF RECON,ioos:station:SCCF:18:1,2013-02-07T02:00:00Z,26.6955,-81.8138,10.92,1111122 
SCCF RECON,ioos:station:SCCF:18:1,2013-02-07T03:00:00Z,26.6955,-81.8138,11.93,1111122 
SCCF RECON,ioos:station:SCCF:18:1,2013-02-07T04:00:00Z,26.6955,-81.8138,13.58,1111122 
SCCF RECON,ioos:station:SCCF:18:1,2013-02-07T05:00:00Z,26.6955,-81.8138,13.42,1111122 
SCCF RECON,ioos:station:SCCF:18:1,2013-02-07T06:00:00Z,26.6955,-81.8138,11.62,1111122 
SCCF RECON,ioos:station:SCCF:18:1,2013-02-07T07:00:00Z,26.6955,-81.8138,8.54,1111122 
SCCF RECON,ioos:station:SCCF:18:1,2013-02-07T08:00:00Z,26.6955,-81.8138,9.55,1111122 
SCCF RECON,ioos:station:SCCF:18:1,2013-02-07T09:00:00Z,26.6955,-81.8138,8.74,1111122 
SCCF RECON,ioos:station:SCCF:18:1,2013-02-07T10:00:00Z,26.6955,-81.8138,8.92,1111122 
SCCF RECON,ioos:station:SCCF:18:1,2013-02-07T11:00:00Z,26.6955,-81.8138,6.28,1111122 
SCCF RECON,ioos:station:SCCF:18:1,2013-02-07T12:00:00Z,26.6955,-81.8138,6.83,1111122 
SCCF RECON,ioos:station:SCCF:18:1,2013-02-07T13:00:00Z,26.6955,-81.8138,7.28,1111122 
SCCF RECON,ioos:station:SCCF:18:1,2013-02-07T14:00:00Z,26.6955,-81.8138,6.85,1111122 
SCCF RECON,ioos:station:SCCF:18:1,2013-02-07T15:00:00Z,26.6955,-81.8138,8.9,1111122 
SCCF RECON,ioos:station:SCCF:18:1,2013-02-07T16:00:00Z,26.6955,-81.8138,22.36,1111122 
SCCF RECON,ioos:station:SCCF:18:1,2013-02-07T17:00:00Z,26.6955,-81.8138,11.12,1111122 
SCCF RECON,ioos:station:SCCF:18:1,2013-02-07T18:00:00Z,26.6955,-81.8138,8.25,1111122 
SCCF RECON,ioos:station:SCCF:18:1,2013-02-07T19:00:00Z,26.6955,-81.8138,9.38,1111122 
SCCF RECON,ioos:station:SCCF:18:1,2013-02-07T20:00:00Z,26.6955,-81.8138,12.6,1111122 
SCCF RECON,ioos:station:SCCF:18:1,2013-02-07T21:00:00Z,26.6955,-81.8138,10.43,1111122 
SCCF RECON,ioos:station:SCCF:18:1,2013-02-07T22:00:00Z,26.6955,-81.8138,11.49,1111122 
SCCF RECON,ioos:station:SCCF:18:1,2013-02-07T23:00:00Z,26.6955,-81.8138,11.93,1111122 
SCCF RECON,ioos:station:SCCF:18:1,2013-02-08T00:00:00Z,26.6955,-81.8138,9.59,1111122 
SCCF RECON,ioos:station:SCCF:18:1,2013-02-08T01:00:00Z,26.6955,-81.8138,10.27,1111122 
SCCF RECON,ioos:station:SCCF:18:1,2013-02-08T02:00:00Z,26.6955,-81.8138,9.12,1111122 
SCCF RECON,ioos:station:SCCF:18:1,2013-02-08T03:00:00Z,26.6955,-81.8138,10.47,1111122 
SCCF RECON,ioos:station:SCCF:18:1,2013-02-08T04:00:00Z,26.6955,-81.8138,11.12,1111122 
SCCF RECON,ioos:station:SCCF:18:1,2013-02-08T05:00:00Z,26.6955,-81.8138,12.23,1111122 
SCCF RECON,ioos:station:SCCF:18:1,2013-02-08T06:00:00Z,26.6955,-81.8138,13.25,1111122 
SCCF RECON,ioos:station:SCCF:18:1,2013-02-08T07:00:00Z,26.6955,-81.8138,12.4,1111122 
SCCF RECON,ioos:station:SCCF:18:1,2013-02-08T08:00:00Z,26.6955,-81.8138,12.6,1111122 
SCCF RECON,ioos:station:SCCF:18:1,2013-02-08T09:00:00Z,26.6955,-81.8138,10.25,1111122 
SCCF RECON,ioos:station:SCCF:18:1,2013-02-08T10:00:00Z,26.6955,-81.8138,9.8,1111122 
SCCF RECON,ioos:station:SCCF:18:1,2013-02-08T11:00:00Z,26.6955,-81.8138,7.18,1111122 
SCCF RECON,ioos:station:SCCF:18:1,2013-02-08T12:00:00Z,26.6955,-81.8138,6.91,1111122 
SCCF RECON,ioos:station:SCCF:18:1,2013-02-08T13:00:00Z,26.6955,-81.8138,8.52,1111122 
SCCF RECON,ioos:station:SCCF:18:1,2013-02-08T14:00:00Z,26.6955,-81.8138,5.72,1111122 
SCCF RECON,ioos:station:SCCF:18:1,2013-02-08T15:00:00Z,26.6955,-81.8138,5.57,1111122 
SCCF RECON,ioos:station:SCCF:18:1,2013-02-08T16:00:00Z,26.6955,-81.8138,5.85,1111122 
SCCF RECON,ioos:station:SCCF:18:1,2013-02-08T17:00:00Z,26.6955,-81.8138,6.27,1111122 
SCCF RECON,ioos:station:SCCF:18:1,2013-02-08T18:00:00Z,26.6955,-81.8138,6.62,1111122 
SCCF RECON,ioos:station:SCCF:18:1,2013-02-08T19:00:00Z,26.6955,-81.8138,6.29,1111122 
SCCF RECON,ioos:station:SCCF:18:1,2013-02-08T20:00:00Z,26.6955,-81.8138,6.86,1111122 
SCCF RECON,ioos:station:SCCF:18:1,2013-02-08T21:00:00Z,26.6955,-81.8138,6.88,1111122 
SCCF RECON,ioos:station:SCCF:18:1,2013-02-08T22:00:00Z,26.6955,-81.8138,7.41,1111122 
SCCF RECON,ioos:station:SCCF:18:1,2013-02-08T23:00:00Z,26.6955,-81.8138,7.42,1111122 
SCCF RECON,ioos:station:SCCF:18:1,2013-02-09T00:00:00Z,26.6955,-81.8138,8.08,1111122 
SCCF RECON,ioos:station:SCCF:18:1,2013-02-09T01:00:00Z,26.6955,-81.8138,7.82,1111122 
SCCF RECON,ioos:station:SCCF:18:1,2013-02-09T02:00:00Z,26.6955,-81.8138,7.4,1111122 
SCCF RECON,ioos:station:SCCF:18:1,2013-02-09T03:00:00Z,26.6955,-81.8138,7.31,1111122 
SCCF RECON,ioos:station:SCCF:18:1,2013-02-09T04:00:00Z,26.6955,-81.8138,6.93,1111122 
SCCF RECON,ioos:station:SCCF:18:1,2013-02-09T05:00:00Z,26.6955,-81.8138,7.08,1111122 
SCCF RECON,ioos:station:SCCF:18:1,2013-02-09T06:00:00Z,26.6955,-81.8138,6.82,1111122 
SCCF RECON,ioos:station:SCCF:18:1,2013-02-09T07:00:00Z,26.6955,-81.8138,6.27,1111122 
SCCF RECON,ioos:station:SCCF:18:1,2013-02-09T08:00:00Z,26.6955,-81.8138,6.4,1111122 
SCCF RECON,ioos:station:SCCF:18:1,2013-02-09T09:00:00Z,26.6955,-81.8138,6.07,1111122 
SCCF RECON,ioos:station:SCCF:18:1,2013-02-09T10:00:00Z,26.6955,-81.8138,6.46,1111122 
SCCF RECON,ioos:station:SCCF:18:1,2013-02-09T11:00:00Z,26.6955,-81.8138,6.47,1111122 
SCCF RECON,ioos:station:SCCF:18:1,2013-02-09T12:00:00Z,26.6955,-81.8138,6.67,1111122 
SCCF RECON,ioos:station:SCCF:18:1,2013-02-09T13:00:00Z,26.6955,-81.8138,6.78,1111122 
SCCF RECON,ioos:station:SCCF:18:1,2013-02-09T14:00:00Z,26.6955,-81.8138,5.97,1111122 
SCCF RECON,ioos:station:SCCF:18:1,2013-02-09T15:00:00Z,26.6955,-81.8138,5.76,1111122 
SCCF RECON,ioos:station:SCCF:18:1,2013-02-09T16:00:00Z,26.6955,-81.8138,5.97,1111122 
SCCF RECON,ioos:station:SCCF:18:1,2013-02-09T17:00:00Z,26.6955,-81.8138,6.45,1111122 
SCCF RECON,ioos:station:SCCF:18:1,2013-02-09T18:00:00Z,26.6955,-81.8138,6.85,1111122 
SCCF RECON,ioos:station:SCCF:18:1,2013-02-09T19:00:00Z,26.6955,-81.8138,7.35,1111122 
SCCF RECON,ioos:station:SCCF:18:1,2013-02-09T20:00:00Z,26.6955,-81.8138,9.03,1111122 
SCCF RECON,ioos:station:SCCF:18:1,2013-02-09T21:00:00Z,26.6955,-81.8138,8.53,1111122 
SCCF RECON,ioos:station:SCCF:18:1,2013-02-09T22:00:00Z,26.6955,-81.8138,8.57,1111122 
SCCF RECON,ioos:station:SCCF:18:1,2013-02-09T23:00:00Z,26.6955,-81.8138,7.75,1111122 
SCCF RECON,ioos:station:SCCF:18:1,2013-02-10T00:00:00Z,26.6955,-81.8138,6.92,1111122 
SCCF RECON,ioos:station:SCCF:18:1,2013-02-10T01:00:00Z,26.6955,-81.8138,6.77,1111122 
SCCF RECON,ioos:station:SCCF:18:1,2013-02-10T02:00:00Z,26.6955,-81.8138,6.18,1111122 
SCCF RECON,ioos:station:SCCF:18:1,2013-02-10T03:00:00Z,26.6955,-81.8138,6.22,1111122 
SCCF RECON,ioos:station:SCCF:18:1,2013-02-10T04:00:00Z,26.6955,-81.8138,9.8,1111122 
SCCF RECON,ioos:station:SCCF:18:1,2013-02-10T05:00:00Z,26.6955,-81.8138,6.87,1111122 
SCCF RECON,ioos:station:SCCF:18:1,2013-02-10T06:00:00Z,26.6955,-81.8138,7.44,1111122 
SCCF RECON,ioos:station:SCCF:18:1,2013-02-10T07:00:00Z,26.6955,-81.8138,7.39,1111122 
SCCF RECON,ioos:station:SCCF:18:1,2013-02-10T08:00:00Z,26.6955,-81.8138,7.86,1111122 
SCCF RECON,ioos:station:SCCF:18:1,2013-02-10T09:00:00Z,26.6955,-81.8138,7.17,1111122 
SCCF RECON,ioos:station:SCCF:18:1,2013-02-10T10:00:00Z,26.6955,-81.8138,6.58,1111122 
SCCF RECON,ioos:station:SCCF:18:1,2013-02-10T11:00:00Z,26.6955,-81.8138,5.87,1111122 
SCCF RECON,ioos:station:SCCF:18:1,2013-02-10T12:00:00Z,26.6955,-81.8138,6.75,1111122 
SCCF RECON,ioos:station:SCCF:18:1,2013-02-10T13:00:00Z,26.6955,-81.8138,6.28,1111122 
SCCF RECON,ioos:station:SCCF:18:1,2013-02-10T14:00:00Z,26.6955,-81.8138,5.88,1111122 
SCCF RECON,ioos:station:SCCF:18:1,2013-02-10T15:00:00Z,26.6955,-81.8138,5.74,1111122 
SCCF RECON,ioos:station:SCCF:18:1,2013-02-10T16:00:00Z,26.6955,-81.8138,6.01,1111122 
SCCF RECON,ioos:station:SCCF:18:1,2013-02-10T17:00:00Z,26.6955,-81.8138,6.25,1111122 
SCCF RECON,ioos:station:SCCF:18:1,2013-02-10T18:00:00Z,26.6955,-81.8138,6.89,1111122 
SCCF RECON,ioos:station:SCCF:18:1,2013-02-10T19:00:00Z,26.6955,-81.8138,7.16,1111122 
SCCF RECON,ioos:station:SCCF:18:1,2013-02-10T20:00:00Z,26.6955,-81.8138,9.15,1111122 
SCCF RECON,ioos:station:SCCF:18:1,2013-02-10T21:00:00Z,26.6955,-81.8138,8.04,1111122 
SCCF RECON,ioos:station:SCCF:18:1,2013-02-10T22:00:00Z,26.6955,-81.8138,7.91,1111122 
SCCF RECON,ioos:station:SCCF:18:1,2013-02-10T23:00:00Z,26.6955,-81.8138,7.27,1111122 
SCCF RECON,ioos:station:SCCF:18:1,2013-02-11T00:00:00Z,26.6955,-81.8138,6.68,1111122 
SCCF RECON,ioos:station:SCCF:18:1,2013-02-11T01:00:00Z,26.6955,-81.8138,6.14,1111122 
SCCF RECON,ioos:station:SCCF:18:1,2013-02-11T02:00:00Z,26.6955,-81.8138,5.95,1111122 
SCCF RECON,ioos:station:SCCF:18:1,2013-02-11T03:00:00Z,26.6955,-81.8138,5.91,1111122 
SCCF RECON,ioos:station:SCCF:18:1,2013-02-11T04:00:00Z,26.6955,-81.8138,5.99,1111122 
SCCF RECON,ioos:station:SCCF:18:1,2013-02-11T05:00:00Z,26.6955,-81.8138,7.43,1111122 
SCCF RECON,ioos:station:SCCF:18:1,2013-02-11T06:00:00Z,26.6955,-81.8138,6.96,1111122 
SCCF RECON,ioos:station:SCCF:18:1,2013-02-11T07:00:00Z,26.6955,-81.8138,6.68,1111122 
SCCF RECON,ioos:station:SCCF:18:1,2013-02-11T08:00:00Z,26.6955,-81.8138,8.8,1111122 
SCCF RECON,ioos:station:SCCF:18:1,2013-02-11T09:00:00Z,26.6955,-81.8138,6.61,1111122 
SCCF RECON,ioos:station:SCCF:18:1,2013-02-11T10:00:00Z,26.6955,-81.8138,7.85,1111122 
SCCF RECON,ioos:station:SCCF:18:1,2013-02-11T11:00:00Z,26.6955,-81.8138,6.95,1111122 
SCCF RECON,ioos:station:SCCF:18:1,2013-02-11T12:00:00Z,26.6955,-81.8138,5.87,1111122 
SCCF RECON,ioos:station:SCCF:18:1,2013-02-11T13:00:00Z,26.6955,-81.8138,5.96,1111122 
SCCF RECON,ioos:station:SCCF:18:1,2013-02-11T14:00:00Z,26.6955,-81.8138,6.23,1111122 
SCCF RECON,ioos:station:SCCF:18:1,2013-02-11T15:00:00Z,26.6955,-81.8138,6.09,1111122 
SCCF RECON,ioos:station:SCCF:18:1,2013-02-11T16:00:00Z,26.6955,-81.8138,5.86,1111122 
SCCF RECON,ioos:station:SCCF:18:1,2013-02-11T17:00:00Z,26.6955,-81.8138,6.31,1111122 
SCCF RECON,ioos:station:SCCF:18:1,2013-02-11T18:00:00Z,26.6955,-81.8138,6.74,1111122 
SCCF RECON,ioos:station:SCCF:18:1,2013-02-11T19:00:00Z,26.6955,-81.8138,7.19,1111122 
SCCF RECON,ioos:station:SCCF:18:1,2013-02-11T20:00:00Z,26.6955,-81.8138,6.5,1111122 
SCCF RECON,ioos:station:SCCF:18:1,2013-02-11T21:00:00Z,26.6955,-81.8138,8.92,1111122 
SCCF RECON,ioos:station:SCCF:18:1,2013-02-11T22:00:00Z,26.6955,-81.8138,9.99,1111122 
SCCF RECON,ioos:station:SCCF:18:1,2013-02-11T23:00:00Z,26.6955,-81.8138,12.08,1111122 
SCCF RECON,ioos:station:SCCF:18:1,2013-02-12T00:00:00Z,26.6955,-81.8138,6.74,1111122 
SCCF RECON,ioos:station:SCCF:18:1,2013-02-12T01:00:00Z,26.6955,-81.8138,8.63,1111122 
SCCF RECON,ioos:station:SCCF:18:1,2013-02-12T02:00:00Z,26.6955,-81.8138,7.06,1111122 
SCCF RECON,ioos:station:SCCF:18:1,2013-02-12T03:00:00Z,26.6955,-81.8138,6.55,1111122 
SCCF RECON,ioos:station:SCCF:18:1,2013-02-12T04:00:00Z,26.6955,-81.8138,6.17,1111122 
SCCF RECON,ioos:station:SCCF:18:1,2013-02-12T05:00:00Z,26.6955,-81.8138,5.77,1111122 
SCCF RECON,ioos:station:SCCF:18:1,2013-02-12T06:00:00Z,26.6955,-81.8138,6.26,1111122 
SCCF RECON,ioos:station:SCCF:18:1,2013-02-12T07:00:00Z,26.6955,-81.8138,6.55,1111122 
SCCF RECON,ioos:station:SCCF:18:1,2013-02-12T08:00:00Z,26.6955,-81.8138,6.74,1111122 
SCCF RECON,ioos:station:SCCF:18:1,2013-02-12T09:00:00Z,26.6955,-81.8138,7.2,1111122 
SCCF RECON,ioos:station:SCCF:18:1,2013-02-12T10:00:00Z,26.6955,-81.8138,6.61,1111122 
SCCF RECON,ioos:station:SCCF:18:1,2013-02-12T11:00:00Z,26.6955,-81.8138,7.26,1111122 
SCCF RECON,ioos:station:SCCF:18:1,2013-02-12T12:00:00Z,26.6955,-81.8138,5.91,1111122 